Time,TemperatureF,DewpointF,PressureIn,WindDirection,WindDirectionDegrees,WindSpeedMPH,WindSpeedGustMPH,Humidity,HourlyPrecipIn,Conditions,Clouds,dailyrainin,SoftwareType,DateUTC
2013-04-05 00:02:00,49.0,40.0,28.89,ENE,63,0.0,-999.0,72,20.08,,,-99.99,,2013-04-05 05:02:00,
2013-04-05 00:12:00,49.0,40.0,28.89,ENE,63,0.0,-999.0,72,20.08,,,-99.99,,2013-04-05 05:12:00,
2013-04-05 00:22:00,46.0,39.0,28.89,ENE,72,0.0,-999.0,76,20.08,,,-99.99,,2013-04-05 05:22:00,
2013-04-05 00:32:00,46.0,39.0,28.89,ENE,72,0.0,-999.0,76,20.08,,,-99.99,,2013-04-05 05:32:00,
2013-04-05 00:42:00,46.0,39.0,28.89,ENE,72,0.0,-999.0,76,20.08,,,-99.99,,2013-04-05 05:42:00,
2013-04-05 00:52:00,45.0,38.0,28.89,ENE,63,0.0,-999.0,77,20.08,,,-99.99,,2013-04-05 05:52:00,
2013-04-05 01:02:00,45.0,38.0,28.89,ENE,63,0.0,-999.0,77,20.08,,,-99.99,,2013-04-05 06:02:00,
2013-04-05 01:12:00,45.0,38.0,28.89,ENE,63,0.0,-999.0,77,20.08,,,-99.99,,2013-04-05 06:12:00,
2013-04-05 01:22:00,45.0,39.0,28.90,ENE,63,0.0,-999.0,78,20.08,,,-99.99,,2013-04-05 06:22:00,
2013-04-05 01:32:00,45.0,39.0,28.90,ENE,63,0.0,-999.0,78,20.08,,,-99.99,,2013-04-05 06:32:00,
2013-04-05 01:42:00,45.0,39.0,28.90,ENE,63,0.0,-999.0,78,20.08,,,-99.99,,2013-04-05 06:42:00,
2013-04-05 01:52:00,45.0,39.0,28.91,NE,39,0.0,-999.0,79,20.08,,,-99.99,,2013-04-05 06:52:00,
2013-04-05 02:02:00,45.0,39.0,28.91,NE,39,0.0,-999.0,79,20.08,,,-99.99,,2013-04-05 07:02:00,
2013-04-05 02:12:00,45.0,39.0,28.91,NE,39,0.0,-999.0,79,20.08,,,-99.99,,2013-04-05 07:12:00,
2013-04-05 02:22:00,43.0,38.0,28.91,NE,39,0.0,-999.0,84,20.08,,,-99.99,,2013-04-05 07:22:00,
2013-04-05 02:32:00,43.0,38.0,28.91,NE,39,0.0,-999.0,84,20.08,,,-99.99,,2013-04-05 07:32:00,
2013-04-05 02:42:00,43.0,38.0,28.91,NE,39,0.0,-999.0,84,20.08,,,-99.99,,2013-04-05 07:42:00,
2013-04-05 02:52:00,42.0,38.0,28.91,East,86,6.0,-999.0,86,20.08,,,-99.99,,2013-04-05 07:52:00,
2013-04-05 03:02:00,42.0,38.0,28.91,East,86,6.0,-999.0,86,20.08,,,-99.99,,2013-04-05 08:02:00,
2013-04-05 03:13:00,42.0,38.0,28.91,East,86,6.0,-999.0,86,20.08,,,-99.99,,2013-04-05 08:13:00,
2013-04-05 03:22:00,40.0,37.0,28.91,East,90,0.0,-999.0,89,20.08,,,-99.99,,2013-04-05 08:22:00,
2013-04-05 03:33:00,40.0,37.0,28.91,East,90,0.0,-999.0,89,20.08,,,-99.99,,2013-04-05 08:33:00,
2013-04-05 03:43:00,40.0,37.0,28.91,East,90,0.0,-999.0,89,20.08,,,-99.99,,2013-04-05 08:43:00,
2013-04-05 03:52:00,40.0,37.0,28.92,ENE,75,0.0,-999.0,89,20.08,,,-99.99,,2013-04-05 08:52:00,
2013-04-05 04:02:00,40.0,37.0,28.92,ENE,75,0.0,-999.0,89,20.08,,,-99.99,,2013-04-05 09:02:00,
2013-04-05 04:12:00,40.0,37.0,28.92,ENE,75,0.0,-999.0,89,20.08,,,-99.99,,2013-04-05 09:12:00,
2013-04-05 04:22:00,39.0,37.0,28.91,East,93,3.0,-999.0,91,20.08,,,-99.99,,2013-04-05 09:22:00,
2013-04-05 04:33:00,39.0,37.0,28.91,East,93,3.0,-999.0,91,20.08,,,-99.99,,2013-04-05 09:33:00,
2013-04-05 04:43:00,39.0,37.0,28.91,East,93,3.0,-999.0,91,20.08,,,-99.99,,2013-04-05 09:43:00,
2013-04-05 04:53:00,38.0,36.0,28.92,ENE,69,5.0,-999.0,92,20.08,,,-99.99,,2013-04-05 09:53:00,
2013-04-05 05:02:00,38.0,36.0,28.92,ENE,69,5.0,-999.0,92,20.08,,,-99.99,,2013-04-05 10:02:00,
2013-04-05 05:13:00,38.0,36.0,28.92,ENE,69,5.0,-999.0,92,20.08,,,-99.99,,2013-04-05 10:13:00,
2013-04-05 05:23:00,36.0,34.0,28.92,NE,55,0.0,-999.0,94,20.08,,,-99.99,,2013-04-05 10:23:00,
2013-04-05 05:33:00,36.0,34.0,28.92,NE,55,0.0,-999.0,94,20.08,,,-99.99,,2013-04-05 10:33:00,
2013-04-05 05:43:00,36.0,34.0,28.92,NE,55,0.0,-999.0,94,20.08,,,-99.99,,2013-04-05 10:43:00,
2013-04-05 05:53:00,36.0,34.0,28.92,ENE,76,6.0,-999.0,94,20.08,,,-99.99,,2013-04-05 10:53:00,
2013-04-05 06:02:00,36.0,34.0,28.92,ENE,76,6.0,-999.0,94,20.08,,,-99.99,,2013-04-05 11:02:00,
2013-04-05 06:22:00,35.0,34.0,28.94,East,100,5.0,-999.0,95,20.08,,,-99.99,,2013-04-05 11:22:00,
2013-04-05 06:33:00,35.0,34.0,28.94,East,100,5.0,-999.0,95,20.08,,,-99.99,,2013-04-05 11:33:00,
2013-04-05 06:42:00,35.0,34.0,28.94,East,100,5.0,-999.0,95,20.08,,,-99.99,,2013-04-05 11:42:00,
2013-04-05 06:52:00,35.0,34.0,28.94,East,87,5.0,-999.0,95,20.08,,,-99.99,,2013-04-05 11:52:00,
2013-04-05 07:02:00,35.0,34.0,28.94,East,87,5.0,-999.0,95,20.08,,,-99.99,,2013-04-05 12:02:00,
2013-04-05 07:12:00,35.0,34.0,28.94,East,87,5.0,-999.0,95,20.08,,,-99.99,,2013-04-05 12:12:00,
2013-04-05 07:22:00,34.0,33.0,28.93,East,94,3.0,-999.0,95,20.08,,,-99.99,,2013-04-05 12:22:00,
2013-04-05 07:32:00,34.0,33.0,28.93,East,94,3.0,-999.0,95,20.08,,,-99.99,,2013-04-05 12:32:00,
2013-04-05 07:42:00,34.0,33.0,28.93,East,94,3.0,-999.0,95,20.08,,,-99.99,,2013-04-05 12:42:00,
2013-04-05 07:52:00,34.0,33.0,28.92,ESE,122,4.0,-999.0,96,20.08,,,-99.99,,2013-04-05 12:52:00,
2013-04-05 08:02:00,34.0,33.0,28.92,ESE,122,4.0,-999.0,96,20.08,,,-99.99,,2013-04-05 13:02:00,
2013-04-05 08:12:00,34.0,33.0,28.92,ESE,122,4.0,-999.0,96,20.08,,,-99.99,,2013-04-05 13:12:00,
2013-04-05 08:22:00,35.0,34.0,28.90,East,94,5.0,-999.0,96,20.08,,,-99.99,,2013-04-05 13:22:00,
2013-04-05 08:32:00,35.0,34.0,28.90,East,94,5.0,-999.0,96,20.08,,,-99.99,,2013-04-05 13:32:00,
2013-04-05 08:42:00,35.0,34.0,28.90,East,94,5.0,-999.0,96,20.08,,,-99.99,,2013-04-05 13:42:00,
2013-04-05 08:52:00,37.0,36.0,28.92,SE,141,5.0,-999.0,95,20.08,,,-99.99,,2013-04-05 13:52:00,
2013-04-05 09:02:00,37.0,36.0,28.92,SE,141,5.0,-999.0,95,20.08,,,-99.99,,2013-04-05 14:02:00,
2013-04-05 09:12:00,37.0,36.0,28.92,SE,141,5.0,-999.0,95,20.08,,,-99.99,,2013-04-05 14:12:00,
2013-04-05 09:22:00,40.0,38.0,28.91,SE,145,7.0,-999.0,91,20.08,,,-99.99,,2013-04-05 14:22:00,
2013-04-05 09:37:00,40.0,38.0,28.91,SE,145,7.0,-999.0,91,20.08,,,-99.99,,2013-04-05 14:37:00,
2013-04-05 09:43:00,40.0,38.0,28.91,SE,145,7.0,-999.0,91,20.08,,,-99.99,,2013-04-05 14:43:00,
2013-04-05 09:53:00,41.0,38.0,28.92,ESE,122,6.0,-999.0,89,20.08,,,-99.99,,2013-04-05 14:53:00,
2013-04-05 10:02:00,41.0,38.0,28.92,ESE,122,6.0,-999.0,89,20.08,,,-99.99,,2013-04-05 15:02:00,
2013-04-05 10:12:00,41.0,38.0,28.92,ESE,122,6.0,-999.0,89,20.08,,,-99.99,,2013-04-05 15:12:00,
2013-04-05 10:23:00,43.0,39.0,28.89,SSE,155,15.0,-999.0,86,20.08,,,-99.99,,2013-04-05 15:23:00,
2013-04-05 10:33:00,43.0,39.0,28.89,SSE,155,15.0,-999.0,86,20.08,,,-99.99,,2013-04-05 15:33:00,
2013-04-05 10:43:00,43.0,39.0,28.89,SSE,155,15.0,-999.0,86,20.08,,,-99.99,,2013-04-05 15:43:00,
2013-04-05 10:53:00,44.0,39.0,28.89,SSE,149,11.0,-999.0,84,20.08,,,-99.99,,2013-04-05 15:53:00,
2013-04-05 11:02:00,44.0,39.0,28.89,SSE,149,11.0,-999.0,84,20.08,,,-99.99,,2013-04-05 16:02:00,
2013-04-05 11:13:00,44.0,39.0,28.89,SSE,149,11.0,-999.0,84,20.08,,,-99.99,,2013-04-05 16:13:00,
2013-04-05 11:23:00,47.0,41.0,28.86,SSE,156,16.0,-999.0,80,20.08,,,-99.99,,2013-04-05 16:23:00,
2013-04-05 11:33:00,47.0,41.0,28.86,SSE,156,16.0,-999.0,80,20.08,,,-99.99,,2013-04-05 16:33:00,
2013-04-05 11:43:00,47.0,41.0,28.86,SSE,156,16.0,-999.0,80,20.08,,,-99.99,,2013-04-05 16:43:00,
2013-04-05 11:53:00,50.0,43.0,28.85,SSE,148,13.0,-999.0,76,20.08,,,-99.99,,2013-04-05 16:53:00,
2013-04-05 12:03:00,50.0,43.0,28.85,SSE,148,13.0,-999.0,76,20.08,,,-99.99,,2013-04-05 17:03:00,
2013-04-05 12:13:00,50.0,43.0,28.85,SSE,148,13.0,-999.0,76,20.08,,,-99.99,,2013-04-05 17:13:00,
2013-04-05 12:23:00,53.0,44.0,28.82,SSE,148,13.0,-999.0,72,20.08,,,-99.99,,2013-04-05 17:23:00,
2013-04-05 12:33:00,53.0,44.0,28.82,SSE,148,13.0,-999.0,72,20.08,,,-99.99,,2013-04-05 17:33:00,
2013-04-05 12:46:00,53.0,44.0,28.82,SSE,148,13.0,-999.0,72,20.08,,,-99.99,,2013-04-05 17:46:00,
2013-04-05 12:52:00,54.0,45.0,28.81,South,169,17.0,-999.0,72,20.08,,,-99.99,,2013-04-05 17:52:00,
2013-04-05 13:02:00,54.0,45.0,28.81,South,169,17.0,-999.0,72,20.08,,,-99.99,,2013-04-05 18:02:00,
2013-04-05 13:12:00,54.0,45.0,28.81,South,169,17.0,-999.0,72,20.08,,,-99.99,,2013-04-05 18:12:00,
2013-04-05 13:22:00,57.0,47.0,28.79,South,176,14.0,-999.0,68,20.08,,,-99.99,,2013-04-05 18:22:00,
2013-04-05 13:34:00,57.0,47.0,28.79,South,176,14.0,-999.0,68,20.08,,,-99.99,,2013-04-05 18:34:00,
2013-04-05 13:43:00,57.0,47.0,28.79,South,176,14.0,-999.0,68,20.08,,,-99.99,,2013-04-05 18:43:00,
2013-04-05 13:53:00,58.0,47.0,28.76,SSE,153,17.0,-999.0,68,20.08,,,-99.99,,2013-04-05 18:53:00,
2013-04-05 14:01:00,60.0,48.0,28.73,South,173,16.0,-999.0,65,20.08,,,-99.99,,2013-04-05 19:01:00,
2013-04-05 14:02:00,58.0,47.0,28.76,SSE,153,17.0,-999.0,68,20.08,,,-99.99,,2013-04-05 19:02:00,
2013-04-05 14:13:00,58.0,47.0,28.76,SSE,153,17.0,-999.0,68,20.08,,,-99.99,,2013-04-05 19:13:00,
2013-04-05 14:22:00,60.0,48.0,28.73,South,173,16.0,-999.0,65,20.08,,,-99.99,,2013-04-05 19:22:00,
2013-04-05 14:33:00,60.0,48.0,28.73,South,173,16.0,-999.0,65,20.08,,,-99.99,,2013-04-05 19:33:00,
2013-04-05 14:42:00,60.0,48.0,28.73,South,173,16.0,-999.0,65,20.08,,,-99.99,,2013-04-05 19:42:00,
2013-04-05 14:52:00,60.0,48.0,28.73,South,173,16.0,-999.0,65,20.08,,,-99.99,,2013-04-05 19:52:00,
2013-04-05 15:53:00,63.0,51.0,28.66,SSE,160,13.0,-999.0,64,20.08,,,-99.99,,2013-04-05 20:53:00,
2013-04-05 16:02:00,63.0,51.0,28.66,SSE,160,13.0,-999.0,64,20.08,,,-99.99,,2013-04-05 21:02:00,
2013-04-05 16:12:00,63.0,51.0,28.66,SSE,160,13.0,-999.0,64,20.08,,,-99.99,,2013-04-05 21:12:00,
2013-04-05 16:23:00,65.0,51.0,28.62,SSE,160,20.0,-999.0,60,20.08,,,-99.99,,2013-04-05 21:23:00,
2013-04-05 16:34:00,65.0,51.0,28.62,SSE,160,20.0,-999.0,60,20.08,,,-99.99,,2013-04-05 21:34:00,
2013-04-05 16:44:00,65.0,51.0,28.62,SSE,160,20.0,-999.0,60,20.08,,,-99.99,,2013-04-05 21:44:00,
2013-04-05 16:54:00,66.0,51.0,28.61,SSE,167,11.0,-999.0,59,20.08,,,-99.99,,2013-04-05 21:54:00,
2013-04-05 17:03:00,66.0,51.0,28.61,SSE,167,11.0,-999.0,59,20.08,,,-99.99,,2013-04-05 22:03:00,
2013-04-05 17:13:00,66.0,51.0,28.61,SSE,167,11.0,-999.0,59,20.08,,,-99.99,,2013-04-05 22:13:00,
2013-04-05 17:23:00,68.0,51.0,28.58,SSE,165,17.0,-999.0,55,20.08,,,-99.99,,2013-04-05 22:23:00,
2013-04-05 17:33:00,68.0,51.0,28.58,SSE,165,17.0,-999.0,55,20.08,,,-99.99,,2013-04-05 22:33:00,
2013-04-05 17:44:00,68.0,51.0,28.58,SSE,165,17.0,-999.0,55,20.08,,,-99.99,,2013-04-05 22:44:00,
2013-04-05 17:53:00,67.0,51.0,28.57,SSE,159,14.0,-999.0,56,20.08,,,-99.99,,2013-04-05 22:53:00,
2013-04-05 18:02:00,67.0,51.0,28.57,SSE,159,14.0,-999.0,56,20.08,,,-99.99,,2013-04-05 23:02:00,
2013-04-05 18:12:00,67.0,51.0,28.57,SSE,159,14.0,-999.0,56,20.08,,,-99.99,,2013-04-05 23:12:00,
2013-04-05 18:22:00,67.0,49.0,28.56,South,173,18.0,-999.0,53,20.08,,,-99.99,,2013-04-05 23:22:00,
2013-04-05 18:33:00,67.0,49.0,28.56,South,173,18.0,-999.0,53,20.08,,,-99.99,,2013-04-05 23:33:00,
2013-04-05 18:42:00,67.0,49.0,28.56,South,173,18.0,-999.0,53,20.08,,,-99.99,,2013-04-05 23:42:00,
2013-04-05 18:53:00,67.0,48.0,28.56,South,176,14.0,-999.0,51,20.08,,,-99.99,,2013-04-05 23:53:00,
2013-04-05 19:02:00,67.0,48.0,28.56,South,176,14.0,-999.0,51,20.08,,,-99.99,,2013-04-06 00:02:00,
2013-04-05 19:13:00,67.0,48.0,28.56,South,176,14.0,-999.0,51,20.08,,,-99.99,,2013-04-06 00:13:00,
2013-04-05 19:22:00,67.0,49.0,28.54,South,188,13.0,-999.0,52,20.08,,,-99.99,,2013-04-06 00:22:00,
2013-04-05 19:33:00,67.0,49.0,28.54,South,188,13.0,-999.0,52,20.08,,,-99.99,,2013-04-06 00:33:00,
2013-04-05 19:43:00,67.0,49.0,28.54,South,188,13.0,-999.0,52,20.08,,,-99.99,,2013-04-06 00:43:00,
2013-04-05 19:52:00,66.0,48.0,28.53,South,181,10.0,-999.0,53,20.08,,,-99.99,,2013-04-06 00:52:00,
2013-04-05 20:02:00,66.0,48.0,28.53,South,181,10.0,-999.0,53,20.08,,,-99.99,,2013-04-06 01:02:00,
2013-04-05 20:13:00,65.0,48.0,28.53,SSW,204,13.0,-999.0,54,20.08,,,-99.99,,2013-04-06 01:13:00,
2013-04-05 20:22:00,65.0,48.0,28.53,SSW,204,13.0,-999.0,54,20.08,,,-99.99,,2013-04-06 01:22:00,
2013-04-05 20:33:00,65.0,48.0,28.53,SSW,204,13.0,-999.0,54,20.08,,,-99.99,,2013-04-06 01:33:00,
2013-04-05 20:43:00,65.0,48.0,28.53,SSW,204,13.0,-999.0,54,20.08,,,-99.99,,2013-04-06 01:43:00,
2013-04-05 20:53:00,65.0,48.0,28.53,SSW,200,11.0,-999.0,55,20.08,,,-99.99,,2013-04-06 01:53:00,
2013-04-05 21:02:00,65.0,48.0,28.53,SSW,200,11.0,-999.0,55,20.08,,,-99.99,,2013-04-06 02:02:00,
2013-04-05 21:12:00,65.0,48.0,28.53,SSW,200,11.0,-999.0,55,20.08,,,-99.99,,2013-04-06 02:12:00,
2013-04-05 21:22:00,63.0,48.0,28.52,SSW,204,12.0,-999.0,58,20.08,,,-99.99,,2013-04-06 02:22:00,
2013-04-05 21:33:00,63.0,48.0,28.52,SSW,204,12.0,-999.0,58,20.08,,,-99.99,,2013-04-06 02:33:00,
2013-04-05 21:43:00,63.0,48.0,28.52,SSW,204,12.0,-999.0,58,20.08,,,-99.99,,2013-04-06 02:43:00,
2013-04-05 21:52:00,62.0,48.0,28.51,SSW,207,10.0,-999.0,61,20.08,,,-99.99,,2013-04-06 02:52:00,
2013-04-05 22:02:00,62.0,48.0,28.51,SSW,207,10.0,-999.0,61,20.08,,,-99.99,,2013-04-06 03:02:00,
2013-04-05 22:12:00,62.0,48.0,28.51,SSW,207,10.0,-999.0,61,20.08,,,-99.99,,2013-04-06 03:12:00,
2013-04-05 22:22:00,60.0,48.0,28.51,South,174,15.0,-999.0,65,20.08,,,-99.99,,2013-04-06 03:22:00,
2013-04-05 22:34:00,60.0,48.0,28.51,South,174,15.0,-999.0,65,20.08,,,-99.99,,2013-04-06 03:34:00,
2013-04-05 22:43:00,60.0,48.0,28.51,South,174,15.0,-999.0,65,20.08,,,-99.99,,2013-04-06 03:43:00,
2013-04-05 22:54:00,60.0,49.0,28.51,South,180,14.0,-999.0,66,20.08,,,-99.99,,2013-04-06 03:54:00,
2013-04-05 23:03:00,60.0,49.0,28.51,South,180,14.0,-999.0,66,20.08,,,-99.99,,2013-04-06 04:03:00,
2013-04-05 23:14:00,60.0,49.0,28.51,South,180,14.0,-999.0,66,20.08,,,-99.99,,2013-04-06 04:14:00,
2013-04-05 23:23:00,59.0,49.0,28.50,South,183,14.0,-999.0,69,20.08,,,-99.99,,2013-04-06 04:23:00,
2013-04-05 23:33:00,59.0,49.0,28.50,South,183,14.0,-999.0,69,20.08,,,-99.99,,2013-04-06 04:33:00,
2013-04-05 23:43:00,59.0,49.0,28.50,South,183,14.0,-999.0,69,20.08,,,-99.99,,2013-04-06 04:43:00,
2013-04-05 23:53:00,59.0,49.0,28.49,South,179,15.0,-999.0,70,20.08,,,-99.99,,2013-04-06 04:53:00,